Fort Benning, AL

5:46 AM CDT on October 22, 2017 (GMT -0500)
Lawson Army Air Field

Weather History for KLSF - February, 2014

Change the Weather History Date:

Friday, February 7, 2014

  Actual Average Record
Temperature  
Mean Temperature 40 °F -  
Max Temperature 55 °F 58 °F 75 °F (1999)
Min Temperature 26 °F 34 °F 24 °F (2000)
Degree Days  
Heating Degree Days 24    
Moisture  
Dew Point 30 °F    
Average Humidity 90    
Maximum Humidity 100    
Minimum Humidity 50    
Precipitation  
Precipitation 0.00 in - - ()
Sea Level Pressure  
Sea Level Pressure 30.29 in    
Wind  
Wind Speed 2 mph (NW)    
Max Wind Speed 8 mph    
Max Gust Speed -    
Visibility 5 miles    
Events Fog    
Averages and records for this station are not official NWS values.
T = Trace of Precipitation, MM = Missing Value Source: NWS Daily Summary

Daily Weather History Graph

Daily Weather History Graph

Search for Another Location

Airport or City:

Trip Planner

Search our weather history database for the weather conditions in past years. The results will help you decide how hot, cold, wet, or windy it might be!

Date:

Astronomy

Feb. 07, 2014 Rise Set
Actual Time 7:29 AM EST 6:18 PM EST
Civil Twilight 7:04 AM EST 6:44 PM EST
Nautical Twilight 6:35 AM EST 7:13 PM EST
Astronomical Twilight 6:06 AM EST 7:42 PM EST
Moon 12:33 PM EST (2/7) 1:42 AM EST (2/7)
Length of Visible Light 11h 40m
Length of Day
10h 49m
First Quarter, 59% of the Moon is Illuminated
Feb 7
First Quarter
Feb 14
Full
Feb 22
Last Quarter
Mar 1
New
Mar 8
First Quarter

Hourly Weather History & Observations

Time (EST) Temp. Windchill Dew Point Humidity Pressure Visibility Wind Dir Wind Speed Gust Speed Precip Events Conditions
12:03 AM 32.0 °F - 32.0 °F 100% 30.29 in 2.5 mi Calm Calm - N/A   Clear
12:08 AM 32.0 °F - 32.0 °F 100% 30.28 in 1.0 mi Calm Calm - N/A   Clear
12:13 AM 32.0 °F - 32.0 °F 100% 30.28 in 0.8 mi Calm Calm - N/A   Clear
12:18 AM 32.0 °F - 32.0 °F 100% 30.28 in 1.0 mi Calm Calm - N/A   Clear
12:28 AM 32.0 °F - 32.0 °F 100% 30.28 in 0.5 mi Calm Calm - N/A Fog Light Freezing Fog
12:33 AM 30.2 °F - 30.2 °F 100% 30.27 in 1.0 mi Calm Calm - N/A   Clear
12:38 AM 30.2 °F - 30.2 °F 100% 30.27 in 3.0 mi Calm Calm - N/A   Clear
12:43 AM 32.0 °F - 30.2 °F 93% 30.27 in 3.0 mi Calm Calm - N/A   Clear
12:48 AM 32.0 °F - 30.2 °F 93% 30.27 in 1.8 mi Calm Calm - N/A   Clear
12:53 AM 30.2 °F - 30.2 °F 100% 30.27 in 1.2 mi Calm Calm - N/A   Clear
12:58 AM 29.8 °F - 29.7 °F 99% 30.29 in 1.5 mi Calm Calm - N/A   Clear
1:03 AM 30.2 °F - 30.2 °F 100% 30.27 in 2.5 mi Calm Calm - N/A   Clear
1:08 AM 30.2 °F - 24.8 °F 80% 30.27 in 1.2 mi Calm Calm - N/A   Haze
1:13 AM 30.2 °F - 23.0 °F 75% 30.28 in 0.5 mi Calm Calm - N/A   Haze
1:18 AM 30.2 °F - 26.6 °F 86% 30.28 in 0.2 mi Calm Calm - N/A Fog Light Freezing Fog
1:33 AM 28.4 °F - 28.4 °F 100% 30.28 in 0.5 mi Calm Calm - N/A Fog Light Freezing Fog
1:38 AM 28.4 °F - 28.4 °F 100% 30.28 in 0.2 mi Calm Calm - N/A Fog Light Freezing Fog
1:58 AM 28.2 °F - 28.0 °F 99% 30.30 in 0.2 mi NNW 1.2 mph - N/A Fog Light Freezing Fog
2:23 AM 26.6 °F - 26.6 °F 100% 30.28 in 0.5 mi West 2.3 mph - N/A Fog Light Freezing Fog
2:28 AM 26.6 °F - 26.6 °F 100% 30.28 in 0.8 mi WNW 2.3 mph - N/A   Clear
2:33 AM 26.6 °F - 26.6 °F 100% 30.28 in 1.2 mi WNW 2.3 mph - N/A   Clear
2:38 AM 26.6 °F - 26.6 °F 100% 30.28 in 1.0 mi NW 2.3 mph - N/A   Clear
2:43 AM 26.6 °F 22.6 °F 26.6 °F 100% 30.28 in 0.8 mi NW 3.5 mph - N/A   Clear
2:48 AM 26.6 °F 22.6 °F 26.6 °F 100% 30.28 in 0.8 mi WNW 3.5 mph - N/A   Clear
2:58 AM 26.6 °F 21.2 °F 26.6 °F 100% 30.31 in 0.8 mi WNW 4.6 mph - N/A   Clear
3:03 AM 26.6 °F 21.2 °F 26.6 °F 100% 30.29 in 1.2 mi WNW 4.6 mph - N/A   Clear
3:08 AM 26.6 °F 21.2 °F 26.6 °F 100% 30.29 in 2.5 mi WNW 4.6 mph - N/A   Clear
3:13 AM 26.6 °F 22.6 °F 26.6 °F 100% 30.29 in 2.5 mi NW 3.5 mph - N/A   Clear
3:18 AM 28.4 °F 24.6 °F 26.6 °F 93% 30.29 in 3.0 mi NW 3.5 mph - N/A   Clear
3:23 AM 28.4 °F 24.6 °F 28.4 °F 100% 30.29 in 1.8 mi WNW 3.5 mph - N/A   Clear
3:28 AM 28.4 °F 23.3 °F 28.4 °F 100% 30.29 in 1.0 mi WNW 4.6 mph - N/A   Clear
3:33 AM 28.4 °F 23.3 °F 26.6 °F 93% 30.29 in 1.2 mi WNW 4.6 mph - N/A   Clear
3:38 AM 26.6 °F 21.2 °F 26.6 °F 100% 30.29 in 3.0 mi WNW 4.6 mph - N/A   Clear
3:43 AM 26.6 °F 21.2 °F 26.6 °F 100% 30.29 in 8.0 mi WNW 4.6 mph - N/A   Clear
3:48 AM 28.4 °F 23.3 °F 26.6 °F 93% 30.29 in 10.0 mi WNW 4.6 mph - N/A   Clear
3:58 AM 28.0 °F 22.8 °F 27.9 °F 99% 30.31 in 10.0 mi NW 4.6 mph - N/A   Clear
4:58 AM 29.3 °F - 29.1 °F 99% 30.30 in 10.0 mi NW 2.3 mph - N/A   Clear
5:58 AM 28.6 °F - 28.2 °F 99% 30.31 in 10.0 mi Calm Calm - N/A   Clear
6:28 AM 28.4 °F 24.6 °F 28.4 °F 100% 30.30 in 9.0 mi WNW 3.5 mph - N/A   Clear
6:38 AM 28.4 °F 24.6 °F 26.6 °F 93% 30.30 in 10.0 mi WNW 3.5 mph - N/A   Clear
6:58 AM 27.0 °F 21.6 °F 26.6 °F 99% 30.33 in 10.0 mi WNW 4.6 mph - N/A   Clear
7:58 AM 27.9 °F 24.0 °F 27.7 °F 99% 30.35 in 10.0 mi WNW 3.5 mph - N/A   Clear
8:58 AM 32.0 °F 28.7 °F 31.3 °F 97% 30.37 in 10.0 mi WNW 3.5 mph - N/A   Clear
9:58 AM 36.9 °F 34.3 °F 31.1 °F 80% 30.37 in 10.0 mi North 3.5 mph - N/A   Clear
10:58 AM 41.9 °F 40.0 °F 34.2 °F 74% 30.36 in 10.0 mi NNW 3.5 mph - N/A   Clear
11:58 AM 46.6 °F - 35.8 °F 66% 30.35 in 10.0 mi NNW 3.5 mph - N/A   Clear
12:58 PM 49.6 °F - 35.2 °F 58% 30.32 in 10.0 mi Variable 5.8 mph - N/A   Clear
1:58 PM 52.9 °F - 36.0 °F 53% 30.28 in 10.0 mi NNW 6.9 mph - N/A   Clear
2:58 PM 55.2 °F - 36.7 °F 50% 30.27 in 10.0 mi NNE 8.1 mph - N/A   Clear
3:58 PM 55.6 °F - 37.2 °F 50% 30.25 in 10.0 mi North 5.8 mph - N/A   Clear
4:58 PM 55.4 °F - 37.2 °F 50% 30.25 in 10.0 mi North 6.9 mph - N/A   Clear
5:58 PM 50.9 °F - 36.5 °F 58% 30.25 in 10.0 mi NNW 5.8 mph - N/A   Clear
6:58 PM 43.9 °F 41.3 °F 34.5 °F 70% 30.24 in 10.0 mi WNW 4.6 mph - N/A   Clear
7:58 PM 44.1 °F 41.5 °F 34.0 °F 68% 30.26 in 10.0 mi WNW 4.6 mph - N/A   Clear
8:58 PM 39.6 °F - 33.3 °F 78% 30.27 in 10.0 mi Calm Calm - N/A   Clear
9:58 PM 36.9 °F 33.1 °F 34.5 °F 91% 30.25 in 10.0 mi SE 4.6 mph - N/A   Clear
10:58 PM 34.0 °F - 33.1 °F 96% 30.26 in 10.0 mi WNW 2.3 mph - N/A   Clear
11:58 PM 35.6 °F - 34.5 °F 96% 30.25 in 10.0 mi Calm Calm - N/A   Overcast